Time,TemperatureF,DewpointF,PressureIn,WindDirection,WindDirectionDegrees,WindSpeedMPH,WindSpeedGustMPH,Humidity,HourlyPrecipIn,Conditions,Clouds,dailyrainin,SoftwareType,DateUTC
2013-08-22 00:01:00,70.2,66.1,30.06,North,360,0.0,0.0,87,0.00,RA,,0.00,WeatherDisplay:10.37,2013-08-22 04:01:00,
2013-08-22 00:02:00,70.2,66.5,30.06,North,360,0.0,0.0,88,0.00,RA,,0.00,WeatherDisplay:10.37,2013-08-22 04:02:00,
2013-08-22 00:07:00,70.1,66.4,30.06,North,360,0.0,0.0,88,0.00,RA,,0.00,WeatherDisplay:10.37,2013-08-22 04:07:00,
2013-08-22 00:12:00,69.9,66.2,30.06,North,360,0.0,0.0,88,0.00,BKN,,0.00,WeatherDisplay:10.37,2013-08-22 04:12:00,
2013-08-22 00:17:00,69.8,66.1,30.06,North,360,0.0,0.0,88,0.00,BKN,,0.00,WeatherDisplay:10.37,2013-08-22 04:17:00,
2013-08-22 00:22:00,69.7,66.3,30.07,North,360,0.0,0.0,89,0.00,BKN,,0.00,WeatherDisplay:10.37,2013-08-22 04:22:00,
2013-08-22 00:27:00,69.4,66.0,30.06,North,360,0.0,0.0,89,0.00,BKN,,0.00,WeatherDisplay:10.37,2013-08-22 04:27:00,
2013-08-22 00:32:00,69.3,65.9,30.07,North,360,0.0,0.0,89,0.00,BKN,,0.00,WeatherDisplay:10.37,2013-08-22 04:32:00,
2013-08-22 00:37:00,69.1,65.7,30.07,North,360,0.0,0.0,89,0.00,BKN,,0.00,WeatherDisplay:10.37,2013-08-22 04:37:00,
2013-08-22 00:42:00,68.9,65.8,30.07,North,360,0.0,0.0,90,0.00,BKN,,0.00,WeatherDisplay:10.37,2013-08-22 04:42:00,
2013-08-22 00:47:00,68.8,65.7,30.07,North,360,0.0,0.0,90,0.00,BKN,,0.00,WeatherDisplay:10.37,2013-08-22 04:47:00,
2013-08-22 00:52:00,68.6,65.9,30.07,North,360,0.0,0.0,91,0.00,BKN,,0.00,WeatherDisplay:10.37,2013-08-22 04:52:00,
2013-08-22 00:57:00,68.6,65.9,30.07,North,360,0.0,0.0,91,0.00,BKN,,0.00,WeatherDisplay:10.37,2013-08-22 04:57:00,
2013-08-22 01:02:00,68.5,65.8,30.07,North,360,0.0,0.0,91,0.00,OVC,,0.00,WeatherDisplay:10.37,2013-08-22 05:02:00,
2013-08-22 01:07:00,68.4,65.7,30.07,North,360,0.0,0.0,91,0.00,OVC,,0.00,WeatherDisplay:10.37,2013-08-22 05:07:00,
2013-08-22 01:12:00,68.3,65.6,30.07,North,360,0.0,0.0,91,0.00,OVC,,0.00,WeatherDisplay:10.37,2013-08-22 05:12:00,
2013-08-22 01:17:00,68.1,65.4,30.07,North,360,0.0,0.0,91,0.00,OVC,,0.00,WeatherDisplay:10.37,2013-08-22 05:17:00,
2013-08-22 01:22:00,68.0,65.3,30.07,North,360,0.0,0.0,91,0.00,OVC,,0.00,WeatherDisplay:10.37,2013-08-22 05:22:00,
2013-08-22 01:27:00,67.9,65.5,30.08,North,360,0.0,0.0,92,0.00,OVC,,0.00,WeatherDisplay:10.37,2013-08-22 05:27:00,
2013-08-22 01:32:00,67.7,65.3,30.07,North,360,0.0,0.0,92,0.00,OVC,,0.00,WeatherDisplay:10.37,2013-08-22 05:32:00,
2013-08-22 01:37:00,67.7,65.3,30.08,North,360,0.0,0.0,92,0.00,OVC,,0.00,WeatherDisplay:10.37,2013-08-22 05:37:00,
2013-08-22 01:42:00,67.7,65.3,30.07,North,360,0.0,0.0,92,0.00,OVC,,0.00,WeatherDisplay:10.37,2013-08-22 05:42:00,
2013-08-22 01:47:00,67.6,65.5,30.07,North,360,0.0,0.0,93,0.00,OVC,,0.00,WeatherDisplay:10.37,2013-08-22 05:47:00,
2013-08-22 01:52:00,67.7,65.6,30.07,North,360,0.0,0.0,93,0.00,OVC,,0.00,WeatherDisplay:10.37,2013-08-22 05:52:00,
2013-08-22 01:57:00,67.7,65.6,30.06,North,360,0.0,0.0,93,0.00,OVC,,0.00,WeatherDisplay:10.37,2013-08-22 05:57:00,
2013-08-22 02:02:00,67.7,65.6,30.06,North,360,0.0,0.0,93,0.00,BKN,,0.00,WeatherDisplay:10.37,2013-08-22 06:02:00,
2013-08-22 02:07:00,67.7,65.6,30.06,North,360,0.0,0.0,93,0.00,BKN,,0.00,WeatherDisplay:10.37,2013-08-22 06:07:00,
2013-08-22 02:12:00,67.6,65.5,30.06,North,360,0.0,0.0,93,0.00,BKN,,0.00,WeatherDisplay:10.37,2013-08-22 06:12:00,
2013-08-22 02:17:00,67.5,65.4,30.06,North,360,0.0,0.0,93,0.00,BKN,,0.00,WeatherDisplay:10.37,2013-08-22 06:17:00,
2013-08-22 02:22:00,67.5,65.4,30.06,North,360,0.0,0.0,93,0.00,BKN,,0.00,WeatherDisplay:10.37,2013-08-22 06:22:00,
2013-08-22 02:27:00,67.4,65.3,30.05,North,360,0.0,0.0,93,0.00,BKN,,0.00,WeatherDisplay:10.37,2013-08-22 06:27:00,
2013-08-22 02:32:00,67.3,65.2,30.05,North,360,0.0,0.0,93,0.00,BKN,,0.00,WeatherDisplay:10.37,2013-08-22 06:32:00,
2013-08-22 02:37:00,67.3,65.2,30.04,North,360,0.0,0.0,93,0.00,BKN,,0.00,WeatherDisplay:10.37,2013-08-22 06:37:00,
2013-08-22 02:42:00,67.3,65.2,30.04,North,360,0.0,0.0,93,0.00,BKN,,0.00,WeatherDisplay:10.37,2013-08-22 06:42:00,
2013-08-22 02:47:00,67.3,65.2,30.04,North,360,0.0,0.0,93,0.00,BKN,,0.00,WeatherDisplay:10.37,2013-08-22 06:47:00,
2013-08-22 02:52:00,67.2,65.1,30.04,North,360,0.0,0.0,93,0.00,BKN,,0.00,WeatherDisplay:10.37,2013-08-22 06:52:00,
2013-08-22 02:57:00,67.1,65.0,30.04,North,360,0.0,0.0,93,0.00,BKN,,0.00,WeatherDisplay:10.37,2013-08-22 06:57:00,
2013-08-22 03:02:00,67.0,64.9,30.04,North,360,0.0,0.0,93,0.00,BKN,,0.00,WeatherDisplay:10.37,2013-08-22 07:02:00,
2013-08-22 03:07:00,66.9,64.8,30.04,North,360,0.0,0.0,93,0.00,BKN,,0.00,WeatherDisplay:10.37,2013-08-22 07:07:00,
2013-08-22 03:12:00,66.8,65.0,30.04,North,360,0.0,0.0,94,0.00,BKN,,0.00,WeatherDisplay:10.37,2013-08-22 07:12:00,
2013-08-22 03:17:00,66.7,64.9,30.04,North,360,0.0,0.0,94,0.00,BKN,,0.00,WeatherDisplay:10.37,2013-08-22 07:17:00,
2013-08-22 03:22:00,66.6,64.8,30.04,North,360,0.0,0.0,94,0.00,BKN,,0.00,WeatherDisplay:10.37,2013-08-22 07:22:00,
2013-08-22 03:27:00,66.6,64.8,30.04,North,360,0.0,0.0,94,0.00,BKN,,0.00,WeatherDisplay:10.37,2013-08-22 07:27:00,
2013-08-22 03:32:00,66.6,64.8,30.03,North,360,0.0,0.0,94,0.00,BKN,,0.00,WeatherDisplay:10.37,2013-08-22 07:32:00,
2013-08-22 03:37:00,66.6,64.8,30.03,North,360,0.0,0.0,94,0.00,BKN,,0.00,WeatherDisplay:10.37,2013-08-22 07:37:00,
2013-08-22 03:42:00,66.6,64.8,30.03,North,360,0.0,0.0,94,0.00,BKN,,0.00,WeatherDisplay:10.37,2013-08-22 07:42:00,
2013-08-22 03:47:00,66.6,64.8,30.03,North,360,0.0,0.0,94,0.00,BKN,,0.00,WeatherDisplay:10.37,2013-08-22 07:47:00,
2013-08-22 03:52:00,66.7,64.9,30.04,North,360,0.0,0.0,94,0.00,BKN,,0.00,WeatherDisplay:10.37,2013-08-22 07:52:00,
2013-08-22 03:57:00,66.7,64.9,30.04,North,360,0.0,0.0,94,0.00,BKN,,0.00,WeatherDisplay:10.37,2013-08-22 07:57:00,
2013-08-22 04:02:00,66.7,64.9,30.04,North,360,0.0,0.0,94,0.00,BKN,,0.00,WeatherDisplay:10.37,2013-08-22 08:02:00,
2013-08-22 04:07:00,66.7,64.9,30.04,North,360,0.0,0.0,94,0.00,BKN,,0.00,WeatherDisplay:10.37,2013-08-22 08:07:00,
2013-08-22 04:12:00,66.7,65.2,30.04,North,360,0.0,0.0,95,0.00,BKN,,0.00,WeatherDisplay:10.37,2013-08-22 08:12:00,
2013-08-22 04:17:00,66.7,64.9,30.04,North,360,0.0,0.0,94,0.00,BKN,,0.00,WeatherDisplay:10.37,2013-08-22 08:17:00,
2013-08-22 04:22:00,66.7,64.9,30.04,North,360,0.0,0.0,94,0.00,BKN,,0.00,WeatherDisplay:10.37,2013-08-22 08:22:00,
2013-08-22 04:27:00,66.6,65.1,30.04,North,360,0.0,0.0,95,0.00,BKN,,0.00,WeatherDisplay:10.37,2013-08-22 08:27:00,
2013-08-22 04:32:00,66.6,65.1,30.04,North,360,0.0,0.0,95,0.00,BKN,,0.00,WeatherDisplay:10.37,2013-08-22 08:32:00,
2013-08-22 04:37:00,66.5,65.0,30.03,North,360,0.0,0.0,95,0.00,BKN,,0.00,WeatherDisplay:10.37,2013-08-22 08:37:00,
2013-08-22 04:42:00,66.5,65.0,30.04,North,360,0.0,0.0,95,0.00,BKN,,0.00,WeatherDisplay:10.37,2013-08-22 08:42:00,
2013-08-22 04:47:00,66.4,64.9,30.03,North,360,0.0,0.0,95,0.00,BKN,,0.00,WeatherDisplay:10.37,2013-08-22 08:47:00,
2013-08-22 04:52:00,66.4,64.9,30.03,North,360,0.0,0.0,95,0.00,BKN,,0.00,WeatherDisplay:10.37,2013-08-22 08:52:00,
2013-08-22 04:57:00,66.4,64.9,30.03,North,360,0.0,0.0,95,0.00,BKN,,0.00,WeatherDisplay:10.37,2013-08-22 08:57:00,
2013-08-22 05:02:00,66.4,64.9,30.03,North,360,0.0,0.0,95,0.00,SCT,,0.00,WeatherDisplay:10.37,2013-08-22 09:02:00,
2013-08-22 05:07:00,66.3,64.8,30.03,North,360,0.0,0.0,95,0.00,SCT,,0.00,WeatherDisplay:10.37,2013-08-22 09:07:00,
2013-08-22 05:12:00,66.3,64.8,30.03,North,360,0.0,0.0,95,0.00,SCT,,0.00,WeatherDisplay:10.37,2013-08-22 09:12:00,
2013-08-22 05:17:00,66.2,65.0,30.03,North,360,0.0,0.0,96,0.00,SCT,,0.00,WeatherDisplay:10.37,2013-08-22 09:17:00,
2013-08-22 05:22:00,66.2,64.7,30.04,North,360,0.0,0.0,95,0.00,SCT,,0.00,WeatherDisplay:10.37,2013-08-22 09:22:00,
2013-08-22 05:27:00,66.1,64.6,30.03,North,360,0.0,0.0,95,0.00,SCT,,0.00,WeatherDisplay:10.37,2013-08-22 09:27:00,
2013-08-22 05:32:00,66.1,64.9,30.03,North,360,0.0,0.0,96,0.00,SCT,,0.00,WeatherDisplay:10.37,2013-08-22 09:32:00,
2013-08-22 05:37:00,66.1,64.9,30.03,North,360,0.0,0.0,96,0.00,SCT,,0.00,WeatherDisplay:10.37,2013-08-22 09:37:00,
2013-08-22 05:42:00,66.1,64.9,30.03,North,360,0.0,0.0,96,0.00,SCT,,0.00,WeatherDisplay:10.37,2013-08-22 09:42:00,
2013-08-22 05:47:00,66.1,64.9,30.03,North,360,0.0,0.0,96,0.00,SCT,,0.00,WeatherDisplay:10.37,2013-08-22 09:47:00,
2013-08-22 05:52:00,66.1,64.9,30.03,North,360,0.0,0.0,96,0.00,SCT,,0.00,WeatherDisplay:10.37,2013-08-22 09:52:00,
2013-08-22 05:57:00,66.0,64.8,30.03,North,360,0.0,0.0,96,0.00,SCT,,0.00,WeatherDisplay:10.37,2013-08-22 09:57:00,
2013-08-22 06:02:00,65.9,64.7,30.03,North,360,0.0,0.0,96,0.00,SCT,,0.00,WeatherDisplay:10.37,2013-08-22 10:02:00,
2013-08-22 06:07:00,65.9,64.7,30.03,North,360,0.0,0.0,96,0.00,SCT,,0.00,WeatherDisplay:10.37,2013-08-22 10:07:00,
2013-08-22 06:12:00,65.9,64.7,30.03,North,360,0.0,0.0,96,0.00,SCT,,0.00,WeatherDisplay:10.37,2013-08-22 10:12:00,
2013-08-22 06:17:00,65.8,64.6,30.03,North,360,0.0,0.0,96,0.00,SCT,,0.00,WeatherDisplay:10.37,2013-08-22 10:17:00,
2013-08-22 06:22:00,65.8,64.6,30.03,North,360,0.0,0.0,96,0.00,SCT,,0.00,WeatherDisplay:10.37,2013-08-22 10:22:00,
2013-08-22 06:27:00,65.7,64.5,30.03,North,360,0.0,0.0,96,0.00,SCT,,0.00,WeatherDisplay:10.37,2013-08-22 10:27:00,
2013-08-22 06:32:00,65.7,64.5,30.03,North,360,0.0,0.0,96,0.00,SCT,,0.00,WeatherDisplay:10.37,2013-08-22 10:32:00,
2013-08-22 06:37:00,65.6,64.4,30.04,North,360,0.0,0.0,96,0.00,SCT,,0.00,WeatherDisplay:10.37,2013-08-22 10:37:00,
2013-08-22 06:42:00,65.5,64.3,30.04,North,360,0.0,0.0,96,0.00,SCT,,0.00,WeatherDisplay:10.37,2013-08-22 10:42:00,
2013-08-22 06:47:00,65.4,64.2,30.04,North,360,0.0,0.0,96,0.00,SCT,,0.00,WeatherDisplay:10.37,2013-08-22 10:47:00,
2013-08-22 08:27:00,66.3,65.1,30.04,North,360,0.0,0.0,96,0.00,SCT,,0.00,WeatherDisplay:10.37,2013-08-22 12:27:00,
2013-08-22 08:32:00,66.5,65.3,30.04,North,360,0.0,0.0,96,0.00,SCT,,0.00,WeatherDisplay:10.37,2013-08-22 12:32:00,
2013-08-22 08:37:00,66.7,65.5,30.05,North,360,0.0,0.0,96,0.00,SCT,,0.00,WeatherDisplay:10.37,2013-08-22 12:37:00,
2013-08-22 08:42:00,66.9,65.4,30.05,North,360,0.0,0.0,95,0.00,SCT,,0.00,WeatherDisplay:10.37,2013-08-22 12:42:00,
2013-08-22 08:47:00,67.1,65.6,30.05,North,360,0.0,0.0,95,0.00,SCT,,0.00,WeatherDisplay:10.37,2013-08-22 12:47:00,
2013-08-22 08:52:00,67.3,65.8,30.05,North,360,0.0,0.0,95,0.00,SCT,,0.00,WeatherDisplay:10.37,2013-08-22 12:52:00,
2013-08-22 08:57:00,67.6,65.8,30.05,North,360,0.0,0.0,94,0.00,SCT,,0.00,WeatherDisplay:10.37,2013-08-22 12:57:00,
2013-08-22 09:00:00,67.7,65.9,30.05,North,360,0.0,0.0,94,0.00,SCT,,0.00,WeatherDisplay:10.37,2013-08-22 13:00:00,
2013-08-22 09:05:00,67.9,66.1,30.06,North,360,0.0,0.0,94,0.00,SCT,,0.00,WeatherDisplay:10.37,2013-08-22 13:05:00,
2013-08-22 09:10:00,68.2,66.4,30.05,North,360,0.0,0.0,94,0.00,SCT,,0.00,WeatherDisplay:10.37,2013-08-22 13:10:00,
2013-08-22 09:15:00,68.5,66.4,30.05,North,360,0.0,0.0,93,0.00,SCT,,0.00,WeatherDisplay:10.37,2013-08-22 13:15:00,
2013-08-22 09:20:00,68.9,66.8,30.05,North,360,0.0,0.0,93,0.00,SCT,,0.00,WeatherDisplay:10.37,2013-08-22 13:20:00,
2013-08-22 09:25:00,69.2,66.8,30.05,North,360,0.0,0.0,92,0.00,SCT,,0.00,WeatherDisplay:10.37,2013-08-22 13:25:00,
2013-08-22 09:30:00,69.6,66.9,30.05,North,360,0.0,0.0,91,0.00,SCT,,0.00,WeatherDisplay:10.37,2013-08-22 13:30:00,
2013-08-22 09:35:00,70.1,67.3,30.04,North,360,0.0,0.0,91,0.00,SCT,,0.00,WeatherDisplay:10.37,2013-08-22 13:35:00,
2013-08-22 09:40:00,70.5,67.4,30.04,North,360,0.0,0.0,90,0.00,SCT,,0.00,WeatherDisplay:10.37,2013-08-22 13:40:00,
2013-08-22 09:45:00,70.9,67.8,30.04,North,360,0.0,0.0,90,0.00,SCT,,0.00,WeatherDisplay:10.37,2013-08-22 13:45:00,
2013-08-22 09:50:00,71.3,67.9,30.03,North,360,0.0,0.0,89,0.00,SCT,,0.00,WeatherDisplay:10.37,2013-08-22 13:50:00,
2013-08-22 09:55:00,71.6,68.2,30.03,North,360,0.0,0.0,89,0.00,SCT,,0.00,WeatherDisplay:10.37,2013-08-22 13:55:00,
2013-08-22 10:00:00,72.1,68.7,30.03,North,360,0.0,0.0,89,0.00,SCT,,0.00,WeatherDisplay:10.37,2013-08-22 14:00:00,
2013-08-22 10:05:00,72.5,68.4,30.03,North,360,0.0,0.0,87,0.00,SCT,,0.00,WeatherDisplay:10.37,2013-08-22 14:05:00,
2013-08-22 10:10:00,72.7,68.3,30.03,North,360,0.0,0.0,86,0.00,SCT,,0.00,WeatherDisplay:10.37,2013-08-22 14:10:00,
2013-08-22 10:15:00,73.0,68.9,30.03,North,360,0.0,0.0,87,0.00,SCT,,0.00,WeatherDisplay:10.37,2013-08-22 14:15:00,
2013-08-22 10:20:00,73.3,68.5,30.03,North,360,0.0,0.0,85,0.00,SCT,,0.00,WeatherDisplay:10.37,2013-08-22 14:20:00,
2013-08-22 10:25:00,73.5,68.4,30.03,North,360,0.0,0.0,84,0.00,SCT,,0.00,WeatherDisplay:10.37,2013-08-22 14:25:00,
2013-08-22 10:30:00,73.6,69.2,30.04,North,360,0.0,0.0,86,0.00,SCT,,0.00,WeatherDisplay:10.37,2013-08-22 14:30:00,
2013-08-22 10:35:00,73.6,68.8,30.04,North,360,0.0,0.0,85,0.00,SCT,,0.00,WeatherDisplay:10.37,2013-08-22 14:35:00,
2013-08-22 10:40:00,73.6,69.2,30.05,North,360,0.0,0.0,86,0.00,SCT,,0.00,WeatherDisplay:10.37,2013-08-22 14:40:00,
2013-08-22 10:45:00,73.6,68.8,30.05,North,360,0.0,0.0,85,0.00,SCT,,0.00,WeatherDisplay:10.37,2013-08-22 14:45:00,
2013-08-22 10:50:00,73.7,68.9,30.05,North,360,0.0,0.0,85,0.00,SCT,,0.00,WeatherDisplay:10.37,2013-08-22 14:50:00,
2013-08-22 10:55:00,74.0,69.5,30.04,North,360,0.0,0.0,86,0.00,SCT,,0.00,WeatherDisplay:10.37,2013-08-22 14:55:00,
2013-08-22 11:00:00,74.2,69.4,30.05,North,360,0.0,0.0,85,0.00,SCT,,0.00,WeatherDisplay:10.37,2013-08-22 15:00:00,
2013-08-22 11:05:00,74.4,69.6,30.04,North,360,0.0,0.0,85,0.00,SCT,,0.00,WeatherDisplay:10.37,2013-08-22 15:05:00,
2013-08-22 11:10:00,74.6,69.4,30.04,North,360,0.0,0.0,84,0.00,SCT,,0.00,WeatherDisplay:10.37,2013-08-22 15:10:00,
2013-08-22 11:15:00,74.9,70.1,30.04,North,360,0.0,0.0,85,0.00,SCT,,0.00,WeatherDisplay:10.37,2013-08-22 15:15:00,
2013-08-22 11:20:00,75.3,69.8,30.04,North,360,0.0,0.0,83,0.00,SCT,,0.00,WeatherDisplay:10.37,2013-08-22 15:20:00,
2013-08-22 11:25:00,75.9,70.4,30.04,North,360,0.0,0.0,83,0.00,SCT,,0.00,WeatherDisplay:10.37,2013-08-22 15:25:00,
2013-08-22 11:30:00,76.3,70.8,30.04,North,360,0.0,0.0,83,0.00,SCT,,0.00,WeatherDisplay:10.37,2013-08-22 15:30:00,
2013-08-22 11:35:00,76.8,70.2,30.04,North,360,0.0,0.0,80,0.00,SCT,,0.00,WeatherDisplay:10.37,2013-08-22 15:35:00,
2013-08-22 11:40:00,76.9,69.9,30.04,North,360,0.0,0.0,79,0.00,SCT,,0.00,WeatherDisplay:10.37,2013-08-22 15:40:00,
2013-08-22 11:45:00,76.4,69.4,30.04,North,360,0.0,0.0,79,0.00,SCT,,0.00,WeatherDisplay:10.37,2013-08-22 15:45:00,
2013-08-22 11:50:00,75.7,69.5,30.04,North,360,0.0,0.0,81,0.00,SCT,,0.00,WeatherDisplay:10.37,2013-08-22 15:50:00,
2013-08-22 11:55:00,75.1,69.2,30.04,North,360,0.0,0.0,82,0.00,SCT,,0.00,WeatherDisplay:10.37,2013-08-22 15:55:00,
2013-08-22 12:00:00,74.5,69.3,30.04,North,360,0.0,0.0,84,0.00,SCT,,0.00,WeatherDisplay:10.37,2013-08-22 16:00:00,
2013-08-22 12:05:00,74.1,69.3,30.04,North,360,0.0,0.0,85,0.01,RA,,0.01,WeatherDisplay:10.37,2013-08-22 16:05:00,
2013-08-22 12:10:00,73.8,69.3,30.04,North,360,0.0,0.0,86,0.01,RA,,0.01,WeatherDisplay:10.37,2013-08-22 16:10:00,
2013-08-22 12:15:00,73.7,69.6,30.04,North,360,0.0,0.0,87,0.01,OVC,,0.01,WeatherDisplay:10.37,2013-08-22 16:15:00,
2013-08-22 12:20:00,73.7,69.9,30.04,North,360,0.0,0.0,88,0.01,OVC,,0.01,WeatherDisplay:10.37,2013-08-22 16:20:00,
2013-08-22 12:25:00,73.9,70.1,30.04,North,360,0.0,0.0,88,0.01,OVC,,0.01,WeatherDisplay:10.37,2013-08-22 16:25:00,
2013-08-22 12:30:00,74.2,71.1,30.03,North,360,0.0,0.0,90,0.01,OVC,,0.01,WeatherDisplay:10.37,2013-08-22 16:30:00,
2013-08-22 12:35:00,74.6,70.5,30.03,North,360,0.0,0.0,87,0.01,OVC,,0.01,WeatherDisplay:10.37,2013-08-22 16:35:00,
2013-08-22 12:40:00,75.2,69.3,30.03,North,360,0.0,0.0,82,0.01,OVC,,0.01,WeatherDisplay:10.37,2013-08-22 16:40:00,
2013-08-22 12:45:00,75.5,69.3,30.03,North,360,0.0,0.0,81,0.01,OVC,,0.01,WeatherDisplay:10.37,2013-08-22 16:45:00,
2013-08-22 12:50:00,75.7,69.1,30.03,North,360,0.0,0.0,80,0.01,OVC,,0.01,WeatherDisplay:10.37,2013-08-22 16:50:00,
2013-08-22 12:55:00,75.9,69.6,30.02,North,360,0.0,0.0,81,0.01,OVC,,0.01,WeatherDisplay:10.37,2013-08-22 16:55:00,
2013-08-22 13:00:00,76.2,69.9,30.02,North,360,0.0,0.0,81,0.01,OVC,,0.01,WeatherDisplay:10.37,2013-08-22 17:00:00,
2013-08-22 13:05:00,76.8,69.4,30.03,North,360,0.0,0.0,78,0.00,OVC,,0.01,WeatherDisplay:10.37,2013-08-22 17:05:00,
2013-08-22 13:10:00,77.1,68.9,30.03,North,360,0.0,0.0,76,0.00,OVC,,0.01,WeatherDisplay:10.37,2013-08-22 17:10:00,
2013-08-22 13:15:00,77.5,69.3,30.03,North,360,0.0,0.0,76,0.00,OVC,,0.01,WeatherDisplay:10.37,2013-08-22 17:15:00,
2013-08-22 13:20:00,77.7,69.5,30.03,North,360,0.0,0.0,76,0.00,OVC,,0.01,WeatherDisplay:10.37,2013-08-22 17:20:00,
2013-08-22 13:25:00,77.7,68.7,30.03,North,360,0.0,0.0,74,0.00,OVC,,0.01,WeatherDisplay:10.37,2013-08-22 17:25:00,
2013-08-22 13:30:00,77.7,69.5,30.02,North,360,0.0,0.0,76,0.00,OVC,,0.01,WeatherDisplay:10.37,2013-08-22 17:30:00,
2013-08-22 13:35:00,77.7,68.7,30.02,North,360,0.0,0.0,74,0.00,OVC,,0.01,WeatherDisplay:10.37,2013-08-22 17:35:00,
2013-08-22 13:40:00,77.8,69.2,30.03,North,360,0.0,0.0,75,0.00,OVC,,0.01,WeatherDisplay:10.37,2013-08-22 17:40:00,
2013-08-22 13:45:00,77.8,69.6,30.02,North,360,0.0,0.0,76,0.00,OVC,,0.01,WeatherDisplay:10.37,2013-08-22 17:45:00,
2013-08-22 13:50:00,77.7,68.7,30.02,North,360,0.0,0.0,74,0.00,OVC,,0.01,WeatherDisplay:10.37,2013-08-22 17:50:00,
2013-08-22 13:55:00,77.5,68.9,30.02,North,360,0.0,0.0,75,0.00,OVC,,0.01,WeatherDisplay:10.37,2013-08-22 17:55:00,
2013-08-22 14:00:00,77.4,70.0,30.01,North,360,0.0,0.0,78,0.00,OVC,,0.01,WeatherDisplay:10.37,2013-08-22 18:00:00,
2013-08-22 14:05:00,77.4,69.2,30.01,North,360,0.0,0.0,76,0.00,BKN,,0.01,WeatherDisplay:10.37,2013-08-22 18:05:00,
2013-08-22 14:10:00,77.4,70.4,30.01,North,360,0.0,0.0,79,0.00,BKN,,0.01,WeatherDisplay:10.37,2013-08-22 18:10:00,
2013-08-22 14:15:00,77.6,69.8,30.01,North,360,0.0,0.0,77,0.00,BKN,,0.01,WeatherDisplay:10.37,2013-08-22 18:15:00,
2013-08-22 14:20:00,78.0,70.2,30.01,North,360,0.0,0.0,77,0.00,BKN,,0.01,WeatherDisplay:10.37,2013-08-22 18:20:00,
2013-08-22 14:25:00,78.4,71.0,30.01,North,360,0.0,0.0,78,0.00,BKN,,0.01,WeatherDisplay:10.37,2013-08-22 18:25:00,
2013-08-22 14:30:00,79.0,70.4,30.01,North,360,0.0,0.0,75,0.00,BKN,,0.01,WeatherDisplay:10.37,2013-08-22 18:30:00,
2013-08-22 14:35:00,79.2,71.0,30.01,North,360,0.0,0.0,76,0.00,BKN,,0.01,WeatherDisplay:10.37,2013-08-22 18:35:00,
2013-08-22 14:40:00,79.6,71.8,30.00,North,360,0.0,0.0,77,0.00,BKN,,0.01,WeatherDisplay:10.37,2013-08-22 18:40:00,
2013-08-22 14:45:00,80.1,71.5,30.00,North,360,0.0,0.0,75,0.00,BKN,,0.01,WeatherDisplay:10.37,2013-08-22 18:45:00,
2013-08-22 14:50:00,80.3,70.9,29.99,North,360,0.0,0.0,73,0.00,BKN,,0.01,WeatherDisplay:10.37,2013-08-22 18:50:00,
2013-08-22 14:55:00,80.8,72.9,29.99,North,360,0.0,0.0,77,0.00,BKN,,0.01,WeatherDisplay:10.37,2013-08-22 18:55:00,
2013-08-22 15:00:00,81.2,71.3,29.99,North,360,0.0,0.0,72,0.00,BKN,,0.01,WeatherDisplay:10.37,2013-08-22 19:00:00,
2013-08-22 15:05:00,81.7,72.6,29.99,North,360,0.0,0.0,74,0.00,BKN,,0.01,WeatherDisplay:10.37,2013-08-22 19:05:00,
2013-08-22 15:10:00,81.9,71.6,29.99,North,360,0.0,0.0,71,0.00,BKN,,0.01,WeatherDisplay:10.37,2013-08-22 19:10:00,
2013-08-22 15:15:00,81.8,71.9,29.99,North,360,0.0,0.0,72,0.00,BKN,,0.01,WeatherDisplay:10.37,2013-08-22 19:15:00,
2013-08-22 15:20:00,81.7,72.2,29.99,North,360,0.0,0.0,73,0.00,BKN,,0.01,WeatherDisplay:10.37,2013-08-22 19:20:00,
2013-08-22 15:25:00,81.5,72.4,29.99,North,360,0.0,0.0,74,0.00,BKN,,0.01,WeatherDisplay:10.37,2013-08-22 19:25:00,
2013-08-22 15:30:00,81.5,72.4,29.99,North,360,0.0,0.0,74,0.00,BKN,,0.01,WeatherDisplay:10.37,2013-08-22 19:30:00,
2013-08-22 15:35:00,81.8,71.9,29.99,North,360,0.0,0.0,72,0.00,BKN,,0.01,WeatherDisplay:10.37,2013-08-22 19:35:00,
2013-08-22 15:40:00,82.0,71.7,29.98,North,360,0.0,0.0,71,0.00,BKN,,0.01,WeatherDisplay:10.37,2013-08-22 19:40:00,
2013-08-22 15:45:00,82.4,72.0,29.98,North,360,0.0,0.0,71,0.00,BKN,,0.01,WeatherDisplay:10.37,2013-08-22 19:45:00,
2013-08-22 15:50:00,82.7,72.3,29.98,North,360,0.0,0.0,71,0.00,BKN,,0.01,WeatherDisplay:10.37,2013-08-22 19:50:00,
2013-08-22 15:55:00,82.5,73.0,29.98,North,360,0.0,0.0,73,0.00,BKN,,0.01,WeatherDisplay:10.37,2013-08-22 19:55:00,
2013-08-22 16:00:00,82.5,72.6,29.98,North,360,0.0,0.0,72,0.00,BKN,,0.01,WeatherDisplay:10.37,2013-08-22 20:00:00,
2013-08-22 16:05:00,82.4,72.5,29.97,North,360,0.0,0.0,72,0.00,BKN,,0.01,WeatherDisplay:10.37,2013-08-22 20:05:00,
2013-08-22 16:10:00,82.2,71.4,29.97,North,360,0.0,0.0,70,0.00,BKN,,0.01,WeatherDisplay:10.37,2013-08-22 20:10:00,
2013-08-22 16:15:00,82.3,72.0,29.97,North,360,0.0,0.0,71,0.00,BKN,,0.01,WeatherDisplay:10.37,2013-08-22 20:15:00,
2013-08-22 16:20:00,82.7,72.3,29.97,North,360,0.0,0.0,71,0.00,BKN,,0.01,WeatherDisplay:10.37,2013-08-22 20:20:00,
2013-08-22 16:25:00,83.0,72.2,29.97,North,360,0.0,0.0,70,0.00,BKN,,0.01,WeatherDisplay:10.37,2013-08-22 20:25:00,
2013-08-22 16:30:00,83.5,72.3,29.97,North,360,0.0,0.0,69,0.00,BKN,,0.01,WeatherDisplay:10.37,2013-08-22 20:30:00,
2013-08-22 16:35:00,83.8,71.7,29.97,North,360,0.0,0.0,67,0.00,BKN,,0.01,WeatherDisplay:10.37,2013-08-22 20:35:00,
2013-08-22 16:40:00,84.1,72.0,29.97,North,360,0.0,0.0,67,0.00,BKN,,0.01,WeatherDisplay:10.37,2013-08-22 20:40:00,
2013-08-22 16:45:00,84.2,71.6,29.96,North,360,0.0,0.0,66,0.00,BKN,,0.01,WeatherDisplay:10.37,2013-08-22 20:45:00,
2013-08-22 16:50:00,84.1,72.4,29.96,North,360,0.0,0.0,68,0.00,BKN,,0.01,WeatherDisplay:10.37,2013-08-22 20:50:00,
2013-08-22 16:55:00,84.1,72.0,29.96,North,360,0.0,0.0,67,0.00,BKN,,0.01,WeatherDisplay:10.37,2013-08-22 20:55:00,
2013-08-22 17:00:00,84.1,72.4,29.96,North,360,0.0,0.0,68,0.00,BKN,,0.01,WeatherDisplay:10.37,2013-08-22 21:00:00,
2013-08-22 17:05:00,84.1,73.3,29.96,North,360,0.0,0.0,70,0.00,BKN,,0.01,WeatherDisplay:10.37,2013-08-22 21:05:00,
2013-08-22 17:10:00,84.0,73.6,29.96,North,360,0.0,0.0,71,0.00,BKN,,0.01,WeatherDisplay:10.37,2013-08-22 21:10:00,
2013-08-22 17:15:00,83.8,72.1,29.96,North,360,0.0,0.0,68,0.00,BKN,,0.01,WeatherDisplay:10.37,2013-08-22 21:15:00,
2013-08-22 17:20:00,83.6,72.8,29.96,North,360,0.0,0.0,70,0.00,BKN,,0.01,WeatherDisplay:10.37,2013-08-22 21:20:00,
2013-08-22 17:25:00,83.2,72.8,29.96,North,360,0.0,0.0,71,0.00,BKN,,0.01,WeatherDisplay:10.37,2013-08-22 21:25:00,
2013-08-22 17:30:00,82.7,71.1,29.96,North,360,0.0,0.0,68,0.00,BKN,,0.01,WeatherDisplay:10.37,2013-08-22 21:30:00,
2013-08-22 17:35:00,82.3,71.1,29.96,North,360,0.0,0.0,69,0.00,BKN,,0.01,WeatherDisplay:10.37,2013-08-22 21:35:00,
2013-08-22 17:40:00,81.9,72.0,29.96,North,360,0.0,0.0,72,0.00,BKN,,0.01,WeatherDisplay:10.37,2013-08-22 21:40:00,
2013-08-22 17:45:00,81.6,72.1,29.96,North,360,0.0,0.0,73,0.00,BKN,,0.01,WeatherDisplay:10.37,2013-08-22 21:45:00,
2013-08-22 17:50:00,81.2,71.3,29.96,North,360,0.0,0.0,72,0.00,BKN,,0.01,WeatherDisplay:10.37,2013-08-22 21:50:00,
2013-08-22 17:55:00,80.9,71.4,29.96,North,360,0.0,0.0,73,0.00,BKN,,0.01,WeatherDisplay:10.37,2013-08-22 21:55:00,
2013-08-22 18:00:00,80.7,71.6,29.96,North,360,0.0,0.0,74,0.00,BKN,,0.01,WeatherDisplay:10.37,2013-08-22 22:00:00,
2013-08-22 18:05:00,80.3,70.0,29.96,North,360,0.0,0.0,71,0.00,BKN,,0.01,WeatherDisplay:10.37,2013-08-22 22:05:00,
2013-08-22 18:10:00,80.0,70.6,29.96,North,360,0.0,0.0,73,0.00,BKN,,0.01,WeatherDisplay:10.37,2013-08-22 22:10:00,
2013-08-22 18:15:00,79.7,71.1,29.96,North,360,0.0,0.0,75,0.00,BKN,,0.01,WeatherDisplay:10.37,2013-08-22 22:15:00,
2013-08-22 18:20:00,79.4,70.8,29.97,North,360,0.0,0.0,75,0.00,BKN,,0.01,WeatherDisplay:10.37,2013-08-22 22:20:00,
2013-08-22 18:25:00,79.2,71.0,29.97,North,360,0.0,0.0,76,0.00,BKN,,0.01,WeatherDisplay:10.37,2013-08-22 22:25:00,
2013-08-22 18:30:00,78.9,69.9,29.96,North,360,0.0,0.0,74,0.00,BKN,,0.01,WeatherDisplay:10.37,2013-08-22 22:30:00,
2013-08-22 18:35:00,78.6,70.0,29.96,North,360,0.0,0.0,75,0.00,BKN,,0.01,WeatherDisplay:10.37,2013-08-22 22:35:00,
2013-08-22 18:40:00,78.4,70.2,29.96,North,360,0.0,0.0,76,0.00,BKN,,0.01,WeatherDisplay:10.37,2013-08-22 22:40:00,
2013-08-22 18:45:00,78.2,70.0,29.97,North,360,0.0,0.0,76,0.00,BKN,,0.01,WeatherDisplay:10.37,2013-08-22 22:45:00,
2013-08-22 18:50:00,77.9,69.7,29.97,North,360,0.0,0.0,76,0.00,BKN,,0.01,WeatherDisplay:10.37,2013-08-22 22:50:00,
2013-08-22 18:55:00,77.6,69.8,29.97,North,360,0.0,0.0,77,0.00,BKN,,0.01,WeatherDisplay:10.37,2013-08-22 22:55:00,
2013-08-22 19:00:00,77.5,70.1,29.96,North,360,0.0,0.0,78,0.00,BKN,,0.01,WeatherDisplay:10.37,2013-08-22 23:00:00,
2013-08-22 19:05:00,77.3,69.5,29.96,North,360,0.0,0.0,77,0.00,BKN,,0.01,WeatherDisplay:10.37,2013-08-22 23:05:00,
2013-08-22 19:10:00,77.2,69.8,29.96,North,360,0.0,0.0,78,0.00,BKN,,0.01,WeatherDisplay:10.37,2013-08-22 23:10:00,
2013-08-22 19:15:00,77.1,70.1,29.97,North,360,0.0,0.0,79,0.00,BKN,,0.01,WeatherDisplay:10.37,2013-08-22 23:15:00,
2013-08-22 19:20:00,76.9,69.5,29.97,North,360,0.0,0.0,78,0.00,BKN,,0.01,WeatherDisplay:10.37,2013-08-22 23:20:00,
2013-08-22 19:25:00,76.7,69.7,29.97,North,360,0.0,0.0,79,0.00,BKN,,0.01,WeatherDisplay:10.37,2013-08-22 23:25:00,
2013-08-22 19:30:00,76.5,69.5,29.97,North,360,0.0,0.0,79,0.00,BKN,,0.01,WeatherDisplay:10.37,2013-08-22 23:30:00,
2013-08-22 19:35:00,76.3,69.3,29.97,North,360,0.0,0.0,79,0.00,BKN,,0.01,WeatherDisplay:10.37,2013-08-22 23:35:00,
2013-08-22 19:40:00,76.0,69.0,29.96,North,360,0.0,0.0,79,0.00,BKN,,0.01,WeatherDisplay:10.37,2013-08-22 23:40:00,
2013-08-22 19:45:00,75.8,68.4,29.96,North,360,0.0,0.0,78,0.00,BKN,,0.01,WeatherDisplay:10.37,2013-08-22 23:45:00,
2013-08-22 19:50:00,75.5,68.2,29.96,North,360,0.0,0.0,78,0.00,BKN,,0.01,WeatherDisplay:10.37,2013-08-22 23:50:00,
2013-08-22 19:55:00,75.2,68.2,29.96,North,360,0.0,0.0,79,0.00,BKN,,0.01,WeatherDisplay:10.37,2013-08-22 23:55:00,
2013-08-22 20:00:00,75.0,68.4,29.96,North,360,0.0,0.0,80,0.00,BKN,,0.01,WeatherDisplay:10.37,2013-08-23 00:00:00,
2013-08-22 20:05:00,74.8,68.2,29.96,North,360,0.0,0.0,80,0.00,OVC,,0.01,WeatherDisplay:10.37,2013-08-23 00:05:00,
2013-08-22 20:10:00,74.5,67.9,29.97,North,360,0.0,0.0,80,0.00,OVC,,0.01,WeatherDisplay:10.37,2013-08-23 00:10:00,
2013-08-22 20:15:00,74.3,68.1,29.97,North,360,0.0,0.0,81,0.00,OVC,,0.01,WeatherDisplay:10.37,2013-08-23 00:15:00,
2013-08-22 20:20:00,74.0,67.8,29.97,North,360,0.0,0.0,81,0.00,OVC,,0.01,WeatherDisplay:10.37,2013-08-23 00:20:00,
2013-08-22 20:25:00,73.8,68.0,29.97,North,360,0.0,0.0,82,0.00,OVC,,0.01,WeatherDisplay:10.37,2013-08-23 00:25:00,
2013-08-22 20:30:00,73.5,67.7,29.98,North,360,0.0,0.0,82,0.00,OVC,,0.01,WeatherDisplay:10.37,2013-08-23 00:30:00,
2013-08-22 20:35:00,73.3,68.2,29.98,North,360,0.0,0.0,84,0.00,OVC,,0.01,WeatherDisplay:10.37,2013-08-23 00:35:00,
2013-08-22 20:40:00,73.0,67.9,29.98,North,360,0.0,0.0,84,0.00,OVC,,0.01,WeatherDisplay:10.37,2013-08-23 00:40:00,
2013-08-22 20:45:00,72.7,67.6,29.98,North,360,0.0,0.0,84,0.00,OVC,,0.01,WeatherDisplay:10.37,2013-08-23 00:45:00,
2013-08-22 20:50:00,72.4,67.6,29.99,North,360,0.0,0.0,85,0.00,OVC,,0.01,WeatherDisplay:10.37,2013-08-23 00:50:00,
2013-08-22 20:55:00,72.1,67.3,29.99,North,360,0.0,0.0,85,0.00,OVC,,0.01,WeatherDisplay:10.37,2013-08-23 00:55:00,
2013-08-22 21:00:00,71.9,67.5,29.99,North,360,0.0,0.0,86,0.00,OVC,,0.01,WeatherDisplay:10.37,2013-08-23 01:00:00,
2013-08-22 21:05:00,71.6,67.2,29.99,North,360,0.0,0.0,86,0.00,OVC,,0.01,WeatherDisplay:10.37,2013-08-23 01:05:00,
2013-08-22 21:10:00,71.4,67.3,29.99,North,360,0.0,0.0,87,0.00,OVC,,0.01,WeatherDisplay:10.37,2013-08-23 01:10:00,
2013-08-22 21:15:00,71.2,67.1,29.99,North,360,0.0,0.0,87,0.00,OVC,,0.01,WeatherDisplay:10.37,2013-08-23 01:15:00,
2013-08-22 21:20:00,71.0,67.3,29.99,North,360,0.0,0.0,88,0.00,OVC,,0.01,WeatherDisplay:10.37,2013-08-23 01:20:00,
2013-08-22 21:25:00,70.7,67.0,29.99,North,360,0.0,0.0,88,0.00,OVC,,0.01,WeatherDisplay:10.37,2013-08-23 01:25:00,
2013-08-22 21:30:00,70.5,66.8,29.99,North,360,0.0,0.0,88,0.00,OVC,,0.01,WeatherDisplay:10.37,2013-08-23 01:30:00,
2013-08-22 21:35:00,70.3,66.9,30.00,North,360,0.0,0.0,89,0.00,OVC,,0.01,WeatherDisplay:10.37,2013-08-23 01:35:00,
2013-08-22 21:40:00,70.2,66.8,30.00,North,360,0.0,0.0,89,0.00,OVC,,0.01,WeatherDisplay:10.37,2013-08-23 01:40:00,
2013-08-22 21:45:00,70.1,67.0,30.00,North,360,0.0,0.0,90,0.00,OVC,,0.01,WeatherDisplay:10.37,2013-08-23 01:45:00,
2013-08-22 21:50:00,70.0,66.9,30.00,North,360,0.0,0.0,90,0.00,OVC,,0.01,WeatherDisplay:10.37,2013-08-23 01:50:00,
2013-08-22 21:55:00,69.9,66.8,30.00,North,360,0.0,0.0,90,0.00,OVC,,0.01,WeatherDisplay:10.37,2013-08-23 01:55:00,
2013-08-22 22:00:00,69.8,67.1,30.00,North,360,0.0,0.0,91,0.00,OVC,,0.01,WeatherDisplay:10.37,2013-08-23 02:00:00,
2013-08-22 22:05:00,69.8,67.1,30.00,North,360,0.0,0.0,91,0.00,BKN,,0.01,WeatherDisplay:10.37,2013-08-23 02:05:00,
2013-08-22 22:10:00,69.7,67.0,30.00,North,360,0.0,0.0,91,0.00,BKN,,0.01,WeatherDisplay:10.37,2013-08-23 02:10:00,
2013-08-22 22:15:00,69.7,67.0,30.00,North,360,0.0,0.0,91,0.00,BKN,,0.01,WeatherDisplay:10.37,2013-08-23 02:15:00,
2013-08-22 22:20:00,69.6,66.9,30.00,North,360,0.0,0.0,91,0.00,BKN,,0.01,WeatherDisplay:10.37,2013-08-23 02:20:00,
2013-08-22 22:25:00,69.6,66.9,30.00,North,360,0.0,0.0,91,0.00,BKN,,0.01,WeatherDisplay:10.37,2013-08-23 02:25:00,
2013-08-22 22:30:00,69.5,66.8,30.00,North,360,0.0,0.0,91,0.00,BKN,,0.01,WeatherDisplay:10.37,2013-08-23 02:30:00,
2013-08-22 22:35:00,69.5,67.1,30.00,North,360,0.0,0.0,92,0.00,BKN,,0.01,WeatherDisplay:10.37,2013-08-23 02:35:00,
2013-08-22 22:40:00,69.4,67.0,30.00,North,360,0.0,0.0,92,0.00,BKN,,0.01,WeatherDisplay:10.37,2013-08-23 02:40:00,
2013-08-22 22:45:00,69.3,66.9,30.01,North,360,0.0,0.0,92,0.00,BKN,,0.01,WeatherDisplay:10.37,2013-08-23 02:45:00,
2013-08-22 22:50:00,69.2,66.8,30.00,North,360,0.0,0.0,92,0.00,BKN,,0.01,WeatherDisplay:10.37,2013-08-23 02:50:00,
2013-08-22 22:55:00,69.2,66.8,30.00,North,360,0.0,0.0,92,0.00,BKN,,0.01,WeatherDisplay:10.37,2013-08-23 02:55:00,
2013-08-22 23:00:00,69.2,66.8,30.00,North,360,0.0,0.0,92,0.00,BKN,,0.01,WeatherDisplay:10.37,2013-08-23 03:00:00,
2013-08-22 23:05:00,69.1,67.0,30.01,North,360,0.0,0.0,93,0.00,BKN,,0.01,WeatherDisplay:10.37,2013-08-23 03:05:00,
2013-08-22 23:10:00,69.0,66.9,30.00,North,360,0.0,0.0,93,0.00,BKN,,0.01,WeatherDisplay:10.37,2013-08-23 03:10:00,
2013-08-22 23:15:00,69.1,67.0,30.00,North,360,0.0,0.0,93,0.00,BKN,,0.01,WeatherDisplay:10.37,2013-08-23 03:15:00,
2013-08-22 23:20:00,69.1,67.0,30.00,North,360,0.0,0.0,93,0.00,BKN,,0.01,WeatherDisplay:10.37,2013-08-23 03:20:00,
2013-08-22 23:25:00,69.1,67.0,30.00,North,360,0.0,0.0,93,0.00,BKN,,0.01,WeatherDisplay:10.37,2013-08-23 03:25:00,
2013-08-22 23:30:00,69.1,67.0,30.00,North,360,0.0,0.0,93,0.00,BKN,,0.01,WeatherDisplay:10.37,2013-08-23 03:30:00,
2013-08-22 23:35:00,69.0,66.9,30.00,North,360,0.0,0.0,93,0.00,BKN,,0.01,WeatherDisplay:10.37,2013-08-23 03:35:00,
2013-08-22 23:40:00,68.9,66.8,30.00,North,360,0.0,0.0,93,0.00,BKN,,0.01,WeatherDisplay:10.37,2013-08-23 03:40:00,
2013-08-22 23:45:00,68.9,66.8,30.00,North,360,0.0,0.0,93,0.00,BKN,,0.01,WeatherDisplay:10.37,2013-08-23 03:45:00,
2013-08-22 23:50:00,68.8,66.7,30.00,North,360,0.0,0.0,93,0.00,BKN,,0.01,WeatherDisplay:10.37,2013-08-23 03:50:00,
2013-08-22 23:55:00,68.7,66.6,30.00,North,360,0.0,0.0,93,0.00,BKN,,0.01,WeatherDisplay:10.37,2013-08-23 03:55:00,